Flag for U.S.A. Weather past 2 weeks in Neenah, Wisconsin, U.S.A.

Now
59 °F

Overcast.


Feels Like: 57 °F
Forecast: 55 / 70 °F
Wind: 10 mph from North

Location: Appleton / Outagamie

Current Time: Jul 7, 2015 at 4:43:10 AM

Latest Report: Jul 7, 2015 at 4:15 AM


Visibility: 4 mi

Pressure: 29.94 "Hg

Humidity: 82%

Dew point: 54 °F

Location of NeenahLocation

Historic Weather in Neenah — Graph

°F

Neenah temperature yesterday

Maximum temperature yesterday: 79 °F (at 1:45 PM)
Minimum temperature yesterday: 61 °F (at 11:15 PM)
Average temperature yesterday: 69 °F

Past Weeks' High & Low Weather Summary

 TemperatureHumidityPressure
High81 °F (Jun 22, 4:45 PM)100% (Jun 22, 10:45 AM)30.15 "Hg (Jun 22, 10:45 AM)
Low46 °F (Jul 1, 3:35 AM)27% (Jun 27, 3:45 PM)29.64 "Hg (Jun 22, 2:45 PM)
Average65 °F70%29.96 "Hg
* Reported Jun 22 3:15 AM — Jul 7 3:15 AM, Neenah, Weather by CustomWeather, © 2015

Note: Actual official high and low records may vary slightly from our data, if they occured in-between our weather recording intervals... More about our weather records

Advertising

Neenah weather history for previous 24 hours

 ConditionsComfort  
Time TempWeatherWind HumidityBarometerVisibility
3:15 AM
Tue, Jul 7
61 °FMostly cloudy.7 mph77%29.93 "Hg4 mi
2:55 AM61 °FMostly cloudy.8 mph77%29.93 "Hg4 mi
2:35 AM61 °FMostly cloudy.8 mph77%29.93 "Hg4 mi
2:15 AM61 °FMostly cloudy.12 mph77%29.92 "Hg3 mi
1:55 AM61 °FMostly cloudy.9 mph77%29.92 "Hg3 mi
1:35 AM61 °FMostly cloudy.9 mph77%29.91 "Hg3 mi
1:15 AM61 °FMostly cloudy.15 mph77%29.90 "Hg3 mi
12:55 AM61 °FMostly cloudy.13 mph77%29.90 "Hg4 mi
12:35 AM61 °FOvercast.17 mph77%29.90 "Hg4 mi
12:15 AM61 °FOvercast.13 mph83%29.90 "Hg4 mi
11:55 PM
Mon, Jul 6
61 °FFog.18 mph83%29.89 "Hg4 mi
11:35 PM61 °FFog.15 mph88%29.89 "Hg5 mi
11:15 PM61 °FFog.17 mph88%29.89 "Hg5 mi
10:45 PM63 °FOvercast.16 mph94%29.89 "Hg7 mi
9:45 PM63 °FDrizzle. Low clouds.18 mph100%29.86 "Hg7 mi
8:55 PM72 °FFog.12 mph88%29.82 "Hg2 mi
8:45 PM73 °FLight rain. Partly sunny.12 mph78%29.81 "Hg5 mi
7:45 PM75 °FPartly sunny.8 mph74%29.80 "Hg10 mi
6:45 PM77 °FPartly sunny.16 mph65%29.80 "Hg10 mi
5:45 PM79 °FMostly cloudy.13 mph65%29.79 "Hg10 mi
4:45 PM79 °FPartly sunny.13 mph65%29.80 "Hg10 mi
3:45 PM79 °FBroken clouds.9 mph70%29.83 "Hg7 mi
1:45 PM79 °FPartly sunny.14 mph70%29.84 "Hg7 mi
12:45 PM75 °FMostly cloudy.12 mph83%29.87 "Hg10 mi
11:45 AM75 °FMostly cloudy.6 mph78%29.87 "Hg7 mi
10:45 AM73 °FRain. Mostly cloudy.8 mph78%29.90 "Hg5 mi
9:45 AM73 °FMostly cloudy.12 mph74%29.88 "Hg5 mi
8:45 AM72 °FPartly sunny.10 mph78%29.89 "Hg5 mi
7:45 AM70 °FPartly sunny.8 mph78%29.91 "Hg5 mi
6:45 AM68 °FPartly sunny.8 mph83%29.93 "Hg7 mi
5:45 AM66 °FPassing clouds.9 mph88%29.94 "Hg7 mi
5:15 AM68 °FClear.9 mph78%29.94 "Hg7 mi
4:55 AM66 °FClear.9 mph83%29.94 "Hg7 mi
4:15 AM66 °FClear.9 mph83%29.91 "Hg7 mi
Weather by CustomWeather, © 2015

See weather overviewHow to use our weather pages